TimeCDT,TemperatureF,Dew PointF,Humidity,Sea Level PressureIn,VisibilityMPH,Wind Direction,Wind SpeedMPH,Gust SpeedMPH,PrecipitationIn,Events,Conditions,WindDirDegrees,DateUTC
12:52 AM,64.9,57.9,78,30.11,10.0,NNE,6.9,-,N/A,,Clear,30,2013-06-30 05:52:00
1:52 AM,64.0,59.0,84,30.11,10.0,Calm,Calm,-,N/A,,Overcast,0,2013-06-30 06:52:00
2:52 AM,61.0,57.9,90,30.11,10.0,Calm,Calm,-,N/A,,Partly Cloudy,0,2013-06-30 07:52:00
3:52 AM,59.0,55.9,90,30.12,10.0,Calm,Calm,-,N/A,,Clear,0,2013-06-30 08:52:00
4:52 AM,60.1,55.9,86,30.13,10.0,ENE,6.9,-,N/A,,Clear,60,2013-06-30 09:52:00
5:52 AM,57.9,55.9,93,30.14,10.0,Calm,Calm,-,N/A,,Clear,0,2013-06-30 10:52:00
6:52 AM,60.1,55.0,83,30.16,10.0,Calm,Calm,-,N/A,,Clear,0,2013-06-30 11:52:00
7:52 AM,61.0,55.9,83,30.17,10.0,Calm,Calm,-,N/A,,Clear,0,2013-06-30 12:52:00
8:52 AM,66.0,55.0,68,30.17,10.0,Variable,4.6,-,N/A,,Clear,0,2013-06-30 13:52:00
9:52 AM,69.1,57.9,68,30.17,10.0,East,5.8,-,N/A,,Clear,90,2013-06-30 14:52:00
10:52 AM,73.0,61.0,66,30.18,10.0,East,6.9,-,N/A,,Clear,100,2013-06-30 15:52:00
11:52 AM,75.9,60.1,58,30.17,10.0,Variable,6.9,-,N/A,,Clear,0,2013-06-30 16:52:00
12:52 PM,75.9,57.0,52,30.17,10.0,NE,5.8,-,N/A,,Partly Cloudy,50,2013-06-30 17:52:00
1:52 PM,79.0,55.9,45,30.17,10.0,Variable,5.8,-,N/A,,Scattered Clouds,0,2013-06-30 18:52:00
2:52 PM,79.0,57.0,47,30.17,10.0,East,9.2,-,N/A,,Scattered Clouds,80,2013-06-30 19:52:00
3:52 PM,78.1,54.0,43,30.17,10.0,East,9.2,-,N/A,,Mostly Cloudy,80,2013-06-30 20:52:00
4:52 PM,80.1,54.0,40,30.16,10.0,NE,6.9,-,N/A,,Partly Cloudy,50,2013-06-30 21:52:00
5:52 PM,80.1,53.1,39,30.16,10.0,ENE,9.2,-,N/A,,Clear,60,2013-06-30 22:52:00
6:52 PM,79.0,52.0,39,30.16,10.0,East,10.4,-,N/A,,Clear,80,2013-06-30 23:52:00
7:52 PM,77.0,53.1,43,30.16,10.0,ENE,9.2,-,N/A,,Clear,70,2013-07-01 00:52:00
8:52 PM,72.0,57.9,61,30.17,10.0,East,5.8,-,N/A,,Clear,80,2013-07-01 01:52:00
9:52 PM,66.0,57.0,73,30.18,10.0,East,5.8,-,N/A,,Clear,80,2013-07-01 02:52:00
10:52 PM,64.9,57.0,75,30.20,10.0,NE,8.1,-,N/A,,Clear,40,2013-07-01 03:52:00
11:52 PM,59.0,55.9,90,30.21,10.0,ESE,3.5,-,N/A,,Clear,110,2013-07-01 04:52:00